Weather History for KP59 - February, 2012

Change the Weather History Date:

Sunday, February 26, 2012

  Actual Average Record
Temperature  
Mean Temperature 22 °F -  
Max Temperature 30 °F 26 °F 39 °F (1998)
Min Temperature 15 °F 14 °F -9 °F (2015)
Degree Days  
Heating Degree Days 44    
Moisture  
Dew Point 20 °F    
Average Humidity 84    
Maximum Humidity 92    
Minimum Humidity 63    
Precipitation  
Precipitation 0.74 in - - ()
Sea Level Pressure  
Sea Level Pressure 30.11 in    
Wind  
Wind Speed 5 mph (South)    
Max Wind Speed 14 mph    
Max Gust Speed 29 mph    
Averages and records for this station are not official NWS values.
T = Trace of Precipitation, MM = Missing Value Source: NWS Daily Summary

Daily Weather History Graph

Daily Weather History Graph

Search for Another Location

Airport or City:

Trip Planner

Search our weather history database for the weather conditions in past years. The results will help you decide how hot, cold, wet, or windy it might be!

Date:

Astronomy

Feb. 26, 2012 Rise Set
Actual Time 7:38 AM EST 6:31 PM EST
Civil Twilight 7:07 AM EST 7:02 PM EST
Nautical Twilight 6:31 AM EST 7:37 PM EST
Astronomical Twilight 5:56 AM EST 8:13 PM EST
Moon 9:09 AM EST (2/26) 11:55 PM EST (2/26)
Length of Visible Light 11h 54m
Length of Day
10h 52m
Waxing Crescent, 20% of the Moon is Illuminated
Feb 26
Waxing Crescent
Feb 29
First Quarter
Mar 8
Full
Mar 14
Last Quarter
Mar 22
New

Hourly Weather History & Observations

Time (EST) Temp. Windchill Dew Point Humidity Pressure Visibility Wind Dir Wind Speed Gust Speed Precip Events Conditions
12:51 AM 15.1 °F 9.4 °F 10.0 °F 80% 30.31 in - SW 3.5 mph - N/A   Unknown
1:51 AM 16.0 °F 10.4 °F 10.9 °F 81% 30.31 in - South 3.5 mph - N/A   Unknown
2:51 AM 17.1 °F 11.7 °F 12.9 °F 84% 30.30 in - SSE 3.5 mph - N/A   Unknown
3:51 AM 17.1 °F - 12.9 °F 84% 30.31 in - Calm Calm - N/A   Unknown
4:51 AM 18.0 °F - 14.0 °F 84% 30.30 in - Calm Calm - N/A   Unknown
5:51 AM 21.0 °F - 15.1 °F 78% 30.28 in - Calm Calm - N/A   Unknown
6:51 AM 21.9 °F 15.7 °F 14.0 °F 72% 30.26 in - SSE 4.6 mph - N/A   Unknown
7:51 AM 23.0 °F 18.4 °F 12.9 °F 65% 30.27 in - South 3.5 mph - N/A   Unknown
8:51 AM 25.0 °F 18.1 °F 14.0 °F 63% 30.26 in - South 5.8 mph - N/A   Unknown
9:51 AM 26.1 °F 18.4 °F 16.0 °F 66% 30.23 in - South 6.9 mph - N/A   Unknown
11:51 AM 25.0 °F 15.5 °F 21.0 °F 85% 30.16 in - South 9.2 mph 16.1 mph 0.03 in   Unknown
12:51 PM 26.1 °F 17.6 °F 21.9 °F 84% 30.11 in - South 8.1 mph 18.4 mph 0.04 in   Unknown
1:51 PM 25.0 °F 13.6 °F 23.0 °F 92% 30.09 in - South 12.7 mph 20.7 mph 0.07 in   Unknown
2:51 PM 26.1 °F 14.5 °F 24.1 °F 92% 30.03 in - SSE 13.8 mph 25.3 mph 0.14 in   Unknown
3:51 PM 27.0 °F 17.3 °F 25.0 °F 92% 29.99 in - South 10.4 mph 28.8 mph 0.09 in   Unknown
4:51 PM 28.0 °F 17.5 °F 25.0 °F 88% 29.97 in - SSE 12.7 mph 20.7 mph 0.02 in   Unknown
5:51 PM 27.0 °F 18.7 °F 25.0 °F 92% 29.97 in - South 8.1 mph 17.3 mph 0.06 in   Unknown
6:51 PM 28.0 °F 18.1 °F 25.0 °F 88% 29.94 in - South 11.5 mph 25.3 mph 0.07 in   Unknown
7:51 PM 28.0 °F 19.3 °F 26.1 °F 92% 29.93 in - South 9.2 mph - 0.03 in   Unknown
8:51 PM 28.9 °F 21.1 °F 26.1 °F 89% 29.91 in - South 8.1 mph 17.3 mph 0.04 in   Unknown
9:51 PM 28.9 °F 19.2 °F 27.0 °F 92% 29.87 in - SSE 11.5 mph 19.6 mph 0.04 in   Unknown
10:51 PM 28.9 °F 21.1 °F 27.0 °F 92% 29.85 in - SSE 8.1 mph - 0.05 in   Unknown
11:51 PM 30.0 °F 23.2 °F 28.0 °F 92% 29.82 in - SE 6.9 mph - 0.06 in   Unknown